Regional Weather Roundup
Issued by NWS Burlington, VT

Home | Current Version | Previous Version | Text Only | Print | Product List | Glossary On
Versions: 1 2 3 4 5 6 7 8 9 10 11 12 13 14 15 16 17 18 19 20 21 22 23 24 25 26 27 28 29 30 31 32 33 34 35 36 37 38 39 40 41 42 43 44 45 46 47 48 49 50
000
ASUS41 KBTV 231210
RWRBTV
VERMONT REGIONAL WEATHER ROUNDUP
NATIONAL WEATHER SERVICE BURLINGTON VT
700 AM EST SUN NOV 23 2014

NOTE: "FAIR" INDICATES FEW OR NO CLOUDS BELOW 12,000 FEET WITH NO
SIGNIFICANT WEATHER AND/OR OBSTRUCTIONS TO VISIBILITY.

* THESE REPORTS ARE NOT UNDER NWS QUALITY CONTROL AND/OR DO NOT
  REPORT WEATHER SUCH AS PRECIPITATION AND FOG.

VTZ001>019-231300-
_____VERMONT_____


CITY           SKY/WX    TMP DP  RH WIND       PRES   REMARKS
BURLINGTON     CLOUDY    42  36  79 SW9       30.03R
6HR MIN TEMP:  39; 6HR MAX TEMP:  42; 6HR PCP:  0.04;

MONTPELIER     CLOUDY    41  37  86 NE3       30.03R
6HR MIN TEMP:  39; 6HR MAX TEMP:  43; 6HR PCP:  0.01;

ST. JOHNSBURY*   N/A     37  35  92 MISG      30.00R
6HR MIN TEMP:  37; 6HR MAX TEMP:  40; 6HR PCP:  0.03;

LYNDONVILLE*   FOG       35  33  91 CALM      30.01R VSB 1/2
6HR MIN TEMP:  35; 6HR MAX TEMP:  37;

MIDDLEBURY*    CLOUDY    42  39  90 S10G16    30.04R
6HR MIN TEMP:  39; 6HR MAX TEMP:  42; 6HR PCP:  0.01;

RUTLAND*       CLOUDY    45  37  76 CALM      30.06R
6HR MIN TEMP:  41; 6HR MAX TEMP:  45;

SPRINGFIELD    CLOUDY    39  38  96 CALM      30.06R
6HR MIN TEMP:  38; 6HR MAX TEMP:  44; 6HR PCP:  0.02;

HIGHGATE*      MIX PCPN  38  37  95 S3        30.01R
6HR MIN TEMP:  38; 6HR MAX TEMP:  39;

NEWPORT*       CLOUDY    36  36  99 SE8       30.00R FOG
6HR MIN TEMP:  33; 6HR MAX TEMP:  39;

BENNINGTON     CLOUDY    39  37  92 N3        30.08R FOG
6HR MIN TEMP:  37; 6HR MAX TEMP:  40; 6HR PCP:  0.06;


_____LAKE CHAMPLAIN_____


CITY           SKY/WX    TMP DP  RH WIND       PRES   REMARKS
COLCHESTER RF*   N/A     41  37  87 SW21        N/A
DIAMOND ISL*     N/A     41  36  81 S10         N/A

$$

NYZ007-026>031-035-052-083-231300-
_____NORTHERN NEW YORK_____


CITY           SKY/WX    TMP DP  RH WIND       PRES   REMARKS
PLATTSBURGH    CLOUDY    39  36  89 S6        30.01R
6HR MIN TEMP:  37; 6HR MAX TEMP:  39; 6HR PCP: TRACE;

SARANAC LAKE   CLOUDY    38  38 100 SW7       29.97R FOG
6HR MIN TEMP:  37; 6HR MAX TEMP:  40; 6HR PCP:  0.09;

MASSENA        CLOUDY    41  41 100 SW6       30.02R FOG
6HR MIN TEMP:  40; 6HR MAX TEMP:  41; 6HR PCP:  0.11;

OGDENSBURG*    CLOUDY    43  41  93 SW5       30.00R FOG
POTSDAM*       CLOUDY    43  43 100 W7        30.01R FOG
WATERTOWN      CLOUDY    45  40  82 S6        30.02R
6HR MIN TEMP:  43; 6HR MAX TEMP:  45; 6HR PCP:  0.08;

FT DRUM        CLOUDY    42  42 100 W7        30.01R
6HR MIN TEMP:  40; 6HR MAX TEMP:  42; 6HR PCP:  0.05;

ALBANY         CLOUDY    41  28  60 S7        30.11R
6HR MIN TEMP:  36; 6HR MAX TEMP:  41; 6HR PCP:  0.10;

GLENS FALLS    CLOUDY    37  32  82 S5        30.09R HAZE
6HR MIN TEMP:  35; 6HR MAX TEMP:  37; 6HR PCP: TRACE;


$$
NHZ002-005-011-231300-
_____NEW HAMPSHIRE_____


CITY           SKY/WX    TMP DP  RH WIND       PRES   REMARKS
LEBANON        CLOUDY    41  36  82 CALM      30.03R
6HR MIN TEMP:  40; 6HR MAX TEMP:  44;

KEENE          CLOUDY    34  30  86 CALM      30.10R
6HR MIN TEMP:  34; 6HR MAX TEMP:  39;

PLYMOUTH       CLOUDY    40  40 100 NW3       30.03R
6HR MIN TEMP:  33; 6HR MAX TEMP:  41; 6HR PCP:  0.02;

WHITEFIELD     CLOUDY    36  34  92 CALM      30.01R
6HR MIN TEMP:  35; 6HR MAX TEMP:  42; 6HR PCP: TRACE;


$$

_____REGIONAL QUEBEC LOCATIONS_____


CITY           SKY/WX    TMP DP  RH WIND       PRES   REMARKS
MONTREAL       CLOUDY    37  37 100 SW6       30.00R FOG
QUEBEC CITY    CLOUDY    34  34 100 SW14      29.95R FOG
SHERBROOKE     CLOUDY    37  37 100 SW7       29.98R FOG

_____REGIONAL ONTARIO LOCATIONS_____


CITY           SKY/WX    TMP DP  RH WIND       PRES   REMARKS
OTTAWA         CLOUDY    39  37  93 S3        29.99R FOG

______KEY______
VSB  - VISIBILITY IN MILES
WCI  - WIND CHILL INDEX
HX   - HEAT INDEX
$$
NNNN



USA.gov is the U.S. government's official web portal to all federal, state and local government web resources and services.